2024/03/04 00:00:00,23.5,-0.6
2024/03/04 00:10:00,23.5,-0.2
2024/03/04 00:20:00,23.6, 0.0
2024/03/04 00:30:00,23.7, 0.0
2024/03/04 00:40:00,23.6,-0.4
2024/03/04 00:50:00,23.6,-0.2
2024/03/04 01:00:00,23.5,-0.9
2024/03/04 01:10:00,23.5,-1.1
2024/03/04 01:20:00,23.6,-1.0
2024/03/04 01:30:00,23.6,-0.7
2024/03/04 01:40:00,23.5,-1.0
2024/03/04 01:50:00,23.5,-0.6
2024/03/04 02:00:00,23.5,-0.6
2024/03/04 02:10:00,23.5,-0.5
2024/03/04 02:20:00,23.4,-0.1
2024/03/04 02:30:00,23.4, 0.1
2024/03/04 02:40:00,23.4, 0.3
2024/03/04 02:50:00,23.5, 0.1
2024/03/04 03:00:00,23.4, 0.0
2024/03/04 03:10:00,23.4, 0.0
2024/03/04 03:20:00,23.4, 0.1
2024/03/04 03:30:00,23.4, 0.0
2024/03/04 03:40:00,23.3, 0.8
2024/03/04 03:50:00,23.7, 0.3
2024/03/04 04:00:00,23.8, 0.6
2024/03/04 04:10:00,23.7, 0.5
2024/03/04 04:20:00,23.7, 0.2
2024/03/04 04:30:00,23.7, 0.3
2024/03/04 04:40:00,23.6, 0.5
2024/03/04 04:50:00,23.6, 0.6
2024/03/04 05:00:00,23.6, 0.5
2024/03/04 05:10:00,23.6, 0.8
2024/03/04 05:20:00,23.6, 0.8
2024/03/04 05:30:00,23.5, 0.5
2024/03/04 05:40:00,23.5, 0.5
2024/03/04 05:50:00,23.5, 0.6
2024/03/04 06:00:00,23.5, 0.6
2024/03/04 06:10:00,23.5, 0.4
2024/03/04 06:20:00,23.4, 0.6
2024/03/04 06:30:00,23.4, 0.9
2024/03/04 06:40:00,23.4, 1.0
2024/03/04 06:50:00,23.7, 0.6
2024/03/04 07:00:00,24.2, 0.8
2024/03/04 07:10:00,24.1, 0.5
2024/03/04 07:20:00,24.8, 0.7
2024/03/04 07:30:00,25.4, 0.2
2024/03/04 07:40:00,25.9, 0.5
2024/03/04 07:50:00,26.5, 0.6
2024/03/04 08:00:00,27.1, 0.9
2024/03/04 08:10:00,27.1, 0.9
2024/03/04 08:20:00,27.2, 1.3
2024/03/04 08:30:00,27.2, 1.7
2024/03/04 08:40:00,27.3, 2.3
2024/03/04 08:50:00,27.4, 3.4
2024/03/04 09:00:00,27.3, 3.7
2024/03/04 09:10:00,27.2, 3.7
2024/03/04 09:20:00,27.2, 4.0
2024/03/04 09:30:00,26.7, 4.2
2024/03/04 09:40:00,26.5, 4.3
2024/03/04 09:50:00,26.4, 4.7
2024/03/04 10:00:00,26.1, 3.2
2024/03/04 10:10:00,26.0, 3.7
2024/03/04 10:20:00,26.0, 4.7
2024/03/04 10:30:00,26.0, 4.4
2024/03/04 10:40:00,25.8, 3.6
2024/03/04 10:50:00,25.7, 3.4
2024/03/04 11:00:00,25.6, 3.0
2024/03/04 11:10:00,25.6, 3.1
2024/03/04 11:20:00,25.8, 4.3
2024/03/04 11:30:00,25.7, 4.4
2024/03/04 11:40:00,25.6, 4.7
2024/03/04 11:50:00,25.4, 3.4
2024/03/04 12:00:00,25.4, 3.9
2024/03/04 12:10:00,25.6, 6.5
2024/03/04 12:20:00,25.5, 7.1
2024/03/04 12:30:00,25.3, 6.5
2024/03/04 12:40:00,25.0, 4.8
2024/03/04 12:50:00,24.8, 4.2
2024/03/04 13:00:00,24.7, 4.0
2024/03/04 13:10:00,24.7, 5.1
2024/03/04 13:20:00,24.9, 7.1
2024/03/04 13:30:00,24.5, 7.4
2024/03/04 13:40:00,24.3, 7.0
2024/03/04 13:50:00,24.1, 6.5
2024/03/04 14:00:00,23.7, 5.0
2024/03/04 14:10:00,23.8, 5.0
2024/03/04 14:20:00,24.3, 8.6
2024/03/04 14:30:00,24.3,11.0
2024/03/04 14:40:00,23.2, 6.9
2024/03/04 14:50:00,22.9, 5.5
2024/03/04 15:00:00,22.9, 5.3
2024/03/04 15:10:00,23.5,10.5
2024/03/04 15:20:00,23.3, 9.7
2024/03/04 15:30:00,23.3,11.8
2024/03/04 15:40:00,22.7, 9.0
2024/03/04 15:50:00,22.1, 9.4
2024/03/04 16:00:00,22.1, 9.5
2024/03/04 16:10:00,21.7, 8.9
2024/03/04 16:20:00,21.3, 6.5
2024/03/04 16:30:00,21.1, 6.6
2024/03/04 16:40:00,20.9, 5.1
2024/03/04 16:50:00,20.8, 4.8
2024/03/04 17:00:00,20.6, 3.7
2024/03/04 17:10:00,20.5, 3.4
2024/03/04 17:20:00,20.4, 2.8
2024/03/04 17:30:00,20.3, 2.4
2024/03/04 17:40:00,20.3, 2.3
2024/03/04 17:50:00,20.3, 2.2
2024/03/04 18:00:00,20.2, 1.5
2024/03/04 18:10:00,20.3, 1.6
2024/03/04 18:20:00,20.2, 1.4
2024/03/04 18:30:00,20.1, 1.4
2024/03/04 18:40:00,20.1, 1.5
2024/03/04 18:50:00,20.1, 1.3
2024/03/04 19:00:00,20.1, 1.2
2024/03/04 19:10:00,20.0, 1.1
2024/03/04 19:20:00,20.0, 1.5
2024/03/04 19:30:00,19.9, 1.1
2024/03/04 19:40:00,19.9, 1.0
2024/03/04 19:50:00,19.9, 0.8
2024/03/04 20:00:00,19.9, 0.9
2024/03/04 20:10:00,19.9, 1.2
2024/03/04 20:20:00,19.9, 0.9
2024/03/04 20:30:00,19.9, 1.1
2024/03/04 20:40:00,19.8, 0.9
2024/03/04 20:50:00,19.8, 0.7
2024/03/04 21:00:00,19.8, 1.0
2024/03/04 21:10:00,19.8, 1.0
2024/03/04 21:20:00,19.6, 0.9
2024/03/04 21:30:00,19.6, 0.9
2024/03/04 21:40:00,19.6, 1.1
2024/03/04 21:50:00,19.6, 1.1
2024/03/04 22:00:00,19.6, 1.5
2024/03/04 22:10:00,19.5, 1.3
2024/03/04 22:20:00,19.5, 1.6
2024/03/04 22:30:00,19.4, 1.2
2024/03/04 22:40:00,19.4, 1.2
2024/03/04 22:50:00,19.4, 1.3
2024/03/04 23:00:00,19.4, 1.1
2024/03/04 23:10:00,19.4, 1.3
2024/03/04 23:20:00,19.3, 1.6
2024/03/04 23:30:00,19.3, 1.6
2024/03/04 23:40:00,19.2, 1.7
2024/03/04 23:50:00,19.3, 1.7
